Regional Weather Roundup
Issued by NWS

Home | Current Version | Previous Version | Text Only | Print | Product List | Glossary Off
Versions: 1 2 3 4 5 6 7 8 9 10 11 12 13 14 15 16 17 18 19 20 21 22 23 24 25 26 27 28 29 30 31 32 33 34 35 36 37 38 39 40 41 42 43 44 45 46 47 48 49 50

000
ASUS43 KLMK 020110
RWRKY
KENTUCKY REGIONAL WEATHER ROUNDUP
NATIONAL WEATHER SERVICE LOUISVILLE KY
800 PM EST SUN MAR 01 2015

NOTE "FAIR" INDICATES FEW OR NO CLOUDS BELOW 12,000 FEET
WITH NO SIGNIFICANT WEATHER AND/OR OBSTRUCTIONS TO VISIBILITY.

KYZ001>023-026-027-061>063-070>075-020200-
WESTERN AND SOUTH CENTRAL KENTUCKY

CITY           SKY/WX    TMP DP  RH WIND       PRES   REMARKS
PADUCAH        CLOUDY    37  31  78 N6        30.35R WCI  32
HENDERSON      CLOUDY    34  28  80 NW6       30.36R WCI  29
OWENSBORO      CLOUDY    35  32  89 NW9       30.35R WCI  28
HOPKINSVILLE   CLOUDY    38  37  97 NW7       30.33R FOG     WCI  33
BOWLING GREEN    N/A    N/A N/A N/A MISG        N/A
GLASGOW        LGT RAIN  44  44 100 NW5       30.30R
$$

KYZ024-025-028>034-038-045-046-053-020200-
NORTH CENTRAL KENTUCKY

CITY           SKY/WX    TMP DP  RH WIND       PRES   REMARKS
LOUISVILLE/SDF CLOUDY    38  33  82 W6        30.31R HAZE    WCI  33
LOUISVILLE/LOU CLOUDY    37  33  85 W6        30.31S WCI  32
FORT KNOX      CLOUDY    36  34  93 W6        30.29R WCI  31
$$

KYZ035>037-039>044-047>052-055>060-089>105-020200-
NORTHEAST KENTUCKY

CITY           SKY/WX    TMP DP  RH WIND       PRES   REMARKS
LEXINGTON      CLOUDY    37  36  96 NW7       30.28R FOG     WCI  32
COVINGTON      CLOUDY    34  32  92 W6        30.27R FOG     WCI  29
FRANKFORT      CLOUDY    36  35  96 W5        30.28S FOG     WCI  32
$$

KYZ054-064>069-076>088-106>120-020200-
SOUTHEAST KENTUCKY

CITY           SKY/WX    TMP DP  RH WIND       PRES   REMARKS
JACKSON        FOG       44  43  96 SW5       30.27R VSB 3/4
LONDON         CLOUDY    47  42  83 CALM      30.29R
SOMERSET       FOG       43  43 100 CALM      30.31R VSB 3/4
MIDDLESBORO    FOG       36  36 100 CALM      30.30F VSB 1/4
MONTICELLO     CLOUDY    49  48  96 CALM      30.32R
$$




USA.gov is the U.S. government's official web portal to all federal, state and local government web resources and services.